• MPC Preparation (Info)

  • MPEC 2023-O25 : 2023 OM

    The following Minor Planet Electronic Circular may be linked-to from your own Web pages, but must not otherwise be redistributed electronically.

    A form allowing access to any MPEC is at the bottom of this page.


    Read MPEC 2023-O24 Read MPEC 2023-O26


    M.P.E.C. 2023-O25                                 Issued 2023 July 17, 22:30 UT
    
         The Minor Planet Electronic Circulars contain information on unusual
             minor planets, routine data on comets and natural satellites,
             and occasional editorial announcements.  They are published
        on behalf of Division F of the International Astronomical Union by the
              Minor Planet Center, Smithsonian Astrophysical Observatory,
                              Cambridge, MA 02138, U.S.A.
    			  
                 Prepared using the Tamkin Foundation Computer Network
    
                                  MPC@CFA.HARVARD.EDU
                URL https://www.minorplanetcenter.net/    ISSN 1523-6714
    
                                     2023 OM                                 
    
    
    Observations:
         K23O00M* C2023 07 16.27099016 52 43.728+06 22 19.00         20.0 GVEO025U68
         K23O00M  C2023 07 16.27492116 52 47.177+06 23 41.60         20.0 GVEO025U68
         K23O00M  C2023 07 16.29919016 53 08.269+06 32 05.58         20.2 GVEO025U68
         K23O00M  C2023 07 16.30311716 53 11.676+06 33 26.97         20.2 GVEO025U68
         K23O00M  C2023 07 16.35593016 54 05.261+06 52 48.77         19.54GVEO025F51
         K23O00M  C2023 07 16.35660816 54 05.828+06 53 02.74         19.61GVEO025F51
         K23O00M  C2023 07 16.36672716 54 14.208+06 56 28.07         20.21GVEO025F51
         K23O00M  C2023 07 16.36739216 54 14.788+06 56 42.15         20.05GVEO025F51
         K23O00M  C2023 07 16.37747516 54 23.123+07 00 05.76         20.18GVEO025F51
         K23O00M KB2023 07 16.87624 17 01 40.77 +09 34 22.7                ZEO025106
         K23O00M KB2023 07 16.87936 17 01 43.06 +09 35 16.9          19.7 RZEO025106
         K23O00M KB2023 07 16.88233 17 01 45.31 +09 36 08.2          20.1 RZEO025106
         K23O00M KB2023 07 16.88529 17 01 47.44 +09 37 00.0          20.2 RZEO025106
         K23O00M $C2023 07 16.90254317 02 07.227+09 43 05.93         19.9 GVEO025J04
         K23O00M $C2023 07 16.90486717 02 08.859+09 43 45.93         19.7 GVEO025J04
         K23O00M $C2023 07 16.90710417 02 10.470+09 44 24.33         20.0 GVEO025J04
         K23O00M KC2023 07 16.90824217 02 04.35 +09 43 36.8          19.9 GVEO025L01
         K23O00M KC2023 07 16.90978717 02 05.47 +09 44 02.9          19.6 GVEO025L01
         K23O00M KC2023 07 16.91133817 02 06.66 +09 44 30.2          19.6 GVEO025L01
         K23O00M KC2023 07 16.91289317 02 07.82 +09 44 56.9          19.5 GVEO025L01
         K23O00M IC2023 07 16.91445017 02 08.94 +09 45 22.7          19.9 GVEO025L01
         K23O00M KC2023 07 16.93482117 02 27.262+09 50 51.36         20.4 GVEO025J95
         K23O00M KC2023 07 16.93910617 02 30.367+09 52 04.51         20.6 GVEO025J95
         K23O00M KC2023 07 16.94379417 02 33.826+09 53 23.64         20.0 GVEO025J95
         K23O00M KC2023 07 16.95075 17 02 36.08 +09 55 37.1          19.4 RVEO025K51
         K23O00M KC2023 07 16.95519 17 02 39.32 +09 56 52.2          19.0 RVEO025K51
         K23O00M KC2023 07 16.95955 17 02 42.51 +09 58 12.6          19.5 GVEO025104
         K23O00M KC2023 07 16.95964 17 02 42.61 +09 58 06.7          19.8 RVEO025K51
         K23O00M  C2023 07 16.96399 17 02 46.56 +09 59 28.4          19.8 RXEO025511
         K23O00M  C2023 07 16.96750 17 02 49.25 +10 00 27.8          19.8 RXEO025511
         K23O00M KC2023 07 16.97160 17 02 51.36 +10 01 34.1          19.2 GVEO025104
         K23O00M  C2023 07 16.97622 17 02 55.46 +10 02 55.4          19.8 RXEO025511
         K23O00M KC2023 07 17.12271317 04 57.87 +10 43 29.4                uEO025H21
         K23O00M KC2023 07 17.13399717 05 05.53 +10 46 31.2          20.1 VuEO025H21
         K23O00M KC2023 07 17.13809717 05 08.33 +10 47 36.6          20.3 VuEO025H21
         K23O00M  C2023 07 17.22297217 06 11.978+11 10 20.52         20.0 GVEO025654
         K23O00M  C2023 07 17.24391417 06 25.736+11 15 46.53         20.2 GVEO025654
         K23O00M  C2023 07 17.26474617 06 39.380+11 21 08.30         20.2 GVEO025654
         K23O00M KC2023 07 17.87206417 13 40.24 +13 43 43.1          20.2 GXEO025I93
         K23O00M KC2023 07 17.88807917 13 49.36 +13 47 10.9          20.5 GXEO025I93
         K23O00M KC2023 07 17.89084617 13 49.09 +13 47 41.1          20.9 GVEO025L06
         K23O00M KC2023 07 17.89156317 13 49.49 +13 47 50.1          20.6 GVEO025L06
         K23O00M KC2023 07 17.89227917 13 49.90 +13 47 59.4          20.5 GVEO025L06
         K23O00M KB2023 07 17.89624 17 13 51.35 +13 48 50.5          19.4 RZEO025106
         K23O00M KB2023 07 17.90011 17 13 53.52 +13 49 40.5          19.7 RZEO025106
         K23O00M KB2023 07 17.90397 17 13 55.72 +13 50 29.2          19.6 RZEO025106
         K23O00M KB2023 07 17.90783 17 13 57.93 +13 51 18.4          19.8 RZEO025106
         K23O00M KB2023 07 17.91181 17 14 00.19 +13 52 09.4          19.9 RZEO025106
    
    Observer details:
    104 San Marcello Pistoiese.  Observers P. Bacci, M. Maestripieri.  Measurer P.
        Bacci.  0.60-m f/4 reflector + CCD.
    106 Crni Vrh.  Observers H. Mikuz, J. Vales.  Measurer H. Mikuz.  0.60-m f/3.3
        reflector + CMO.
    511 Haute Provence.  Observers W. Thuillot, M. Saillenfest.  Measurers W.
        Thuillot, S. Bouquillon, F. Taris, T. Carlucci, C. Barache.  1.20-m f/6
        reflector + CCD.
    654 Table Mountain Observatory, Wrightwood-PHMC.  Observers N. Evans, P. Choi,
        N. Saini, C. Zhai, R. Trahan, M. Shao.  1.0-m Reflector + CCD.
    F51 Pan-STARRS 1, Haleakala.  Observers J. Bulger, K. Chambers, T. Lowe, P.
        Minguez, A. Schultz, I. Smith.  Measurers S. Chastel, J. Fairlamb, M.
        Huber, Y. Ramanjooloo, R. Wainscoat, R. Weryk.  1.8-m Ritchey-Chretien +
        CCD.
    H21 Astronomical Research Observatory, Westfield.  Observer R. Holmes.
        Measurers T. Linder, R. Holmes, L. Horn.  0.76-m f/3.0 astrograph + CCD.
    I93 St Pardon de Conques.  Observer F. Losse.  0.40-m f/3.7 reflector + CMO.
    J04 ESA Optical Ground Station, Tenerife.  Observers P. Ruiz, F. Ocana, M.
        Micheli, L. Conversi.  Measurers F. Ocana, M. Micheli, R. Kresken.
        1.0-m f/4.4 reflector + CCD.
    J95 Great Shefford.  Observer P. Birtwhistle.  0.41-m f/6.3 Schmidt-Cassegrain
        + CCD.
    K51 Osservatorio del Celado, Castello Tesino.  Observer M. Campestrin.  0.80-m
        f/4 reflector + CCD.
    L01 Visnjan Observatory, Tican.  Observer K. Korlevic.  1.0-m f/2.9 reflector
        + CCD.
    L06 Sormano 2 Observatory, Bellagio Via Lattea.  Observer G. Ventre.  Measurer
        P. Sicoli.  0.36m Schmidt Cassegrain + CCD.
    U68 JPL SynTrack Robotic Telescope, Auberry.  Observers N. Saini, C. Zhai, R.
        Trahan, M. Zhan, M. Shao.  0.28-m Reflector + CCD.
    
    Orbital elements:
    2023 OM                                                  Earth MOID = 0.0107 AU
    Epoch 2023 Feb. 25.0 TT = JDT 2460000.5                 Veres                   
    M 297.68144              (2000.0)            P               Q                  
    n   0.82065544     Peri.  290.36964     -0.72456441     +0.62623531             
    a   1.1298709      Node   289.56473     -0.46127344     -0.75090911             
    e   0.1794894      Incl.   17.78508     -0.51208713     -0.20967797             
    P   1.20           H   25.61          G   0.15           U   8                  
    Residuals in seconds of arc
    230716 U68  0.4-  0.1-    230716 L01  0.4-  0.2+    230717 H21  0.3+  0.1-
    230716 U68  0.1+  0.4+    230716 L01  0.7-  0.1-    230717 H21  0.1-  0.0
    230716 U68  0.2+  0.2-    230716 L01  0.1+  0.6+    230717 H21  0.1+  0.4-
    230716 U68  0.1+  0.0     230716 L01  0.3+  0.7+    230717 654  0.1-  0.0
    230716 F51  0.2-  0.0     230716 L01  0.0   0.1-    230717 654  0.1-  0.0
    230716 F51  0.1-  0.1+    230716 J95  0.6+  0.1+    230717 654  0.1-  0.1+
    230716 F51  0.3-  0.1-    230716 J95  0.1-  0.3+    230717 I93  0.3+  0.3+
    230716 F51  0.2+  0.5+    230716 J95  0.1+  0.1-    230717 I93  0.9+  0.8+
    230716 F51  0.1-  0.1+    230716 K51  0.1-  0.1-    230717 L06  0.2-  0.1+
    230716 106  0.1-  0.1+    230716 K51  0.5-  0.1+    230717 L06  0.3-  0.1-
    230716 106  0.2-  0.3+    230716 104  0.6+  0.0     230717 L06  0.2-  0.0
    230716 106  0.6+  0.2+    230716 K51  0.2-  0.3-    230717 106  0.9+  0.8+
    230716 106  0.2-  0.8+    230716 511  0.8-  0.8-    230717 106  0.5+  1.3+
    230716 J04  0.2+  0.1+    230716 511  1.1+  0.4-    230717 106  0.6+  0.6+
    230716 J04  0.2-  0.0     230716 104  0.7+  0.7-    230717 106  0.9+  0.6+
    230716 J04  0.0   0.2-    230716 511  1.3-  1.1+    230717 106  0.9+  0.9+
    
    Ephemeris:
    2023 OM                  a,e,i = 1.13, 0.18, 18                  q = 0.9271
    Date    TT    R. A. (2000) Decl.     Delta      r    Elong.  Phase     V
    2023 06 17    06 59 39.8 -40 27 38   0.1536  0.9650    66.5   105.1    25.4
    ...
    2023 07 02    07 46 40.5 -48 03 20   0.06607 0.9989    72.6   103.8    23.5
    ...
    2023 07 10    11 49 26.9 -54 57 21   0.02418 1.0198    96.8    81.9    20.4
    ...
    2023 07 16    16 48 18.1 +04 45 48   0.03012 1.0364   130.6    48.1    19.9
    2023 07 17    17 03 20.9 +10 11 45   0.03505 1.0392   129.7    48.8    20.2
    2023 07 18    17 14 58.1 +14 12 30   0.04032 1.0420   128.6    49.7    20.6
    ...
    2023 07 24    17 51 34.8 +25 04 31   0.07497 1.0592   123.6    53.0    22.1
    ...
    2023 08 01    18 11 38.8 +29 00 15   0.1234  1.0827   120.4    54.0    23.2
    ...
    2023 08 16    18 32 23.2 +29 52 54   0.2147  1.1269   117.1    53.2    24.5
    
    M. P. C. Staff               (C) Copyright 2023 MPC           M.P.E.C. 2023-O25
    


    Read MPEC 2023-O24 Read MPEC 2023-O26


    MPEC number:

    Enter an MPEC number in one of the following forms:

    • 1997-B01 (the full form)
    • J97B01 (the packed version of the full form)
    • B01 (the abbreviated form)